Time,TemperatureF,DewpointF,PressureIn,WindDirection,WindDirectionDegrees,WindSpeedMPH,WindSpeedGustMPH,Humidity,HourlyPrecipIn,Conditions,Clouds,dailyrainin,SoftwareType,DateUTC
2013-09-30 00:00:00,52.5,48.4,29.42,South,183,0.0,18.0,86,0.00,,---,0.00,VWS V14.01,2013-09-30 07:00:00,
2013-09-30 00:06:00,52.3,48.2,29.41,SSW,209,4.0,7.0,86,0.00,,---,0.00,VWS V14.01,2013-09-30 07:06:00,
2013-09-30 00:11:00,52.2,47.8,29.41,SSW,193,3.0,7.0,85,0.00,,---,0.00,VWS V14.01,2013-09-30 07:11:00,
2013-09-30 00:16:00,52.2,47.8,29.42,South,186,2.0,7.0,85,0.00,,---,0.00,VWS V14.01,2013-09-30 07:16:00,
2013-09-30 00:21:00,52.1,46.8,29.42,South,169,0.0,11.0,82,0.00,,---,0.00,VWS V14.01,2013-09-30 07:21:00,
2013-09-30 00:26:00,52.0,46.4,29.42,South,188,1.0,11.0,81,0.00,,---,0.00,VWS V14.01,2013-09-30 07:26:00,
2013-09-30 00:31:00,51.8,45.8,29.42,South,190,7.0,10.0,80,0.00,,---,0.00,VWS V14.01,2013-09-30 07:31:00,
2013-09-30 00:36:00,51.6,45.3,29.43,WSW,255,4.0,14.0,79,0.00,,---,0.00,VWS V14.01,2013-09-30 07:36:00,
2013-09-30 00:41:00,51.4,45.1,29.43,WSW,253,2.0,14.0,79,0.00,,---,0.00,VWS V14.01,2013-09-30 07:41:00,
2013-09-30 00:46:00,51.2,45.2,29.43,South,182,0.0,16.0,80,0.00,,---,0.00,VWS V14.01,2013-09-30 07:46:00,
2013-09-30 00:51:00,51.1,45.5,29.43,South,176,1.0,16.0,81,0.00,,---,0.00,VWS V14.01,2013-09-30 07:51:00,
2013-09-30 00:56:00,51.0,46.0,29.43,South,188,1.0,16.0,83,0.00,,---,0.00,VWS V14.01,2013-09-30 07:56:00,
2013-09-30 01:01:00,50.9,45.9,29.44,SSE,153,1.0,3.0,83,0.00,,---,0.00,VWS V14.01,2013-09-30 08:01:00,
2013-09-30 01:06:00,50.8,45.8,29.44,South,171,5.0,10.0,83,0.00,,---,0.00,VWS V14.01,2013-09-30 08:06:00,
2013-09-30 01:11:00,50.7,46.0,29.44,South,186,6.0,11.0,84,0.00,,---,0.00,VWS V14.01,2013-09-30 08:11:00,
2013-09-30 01:16:00,50.8,46.5,29.44,SE,146,2.0,15.0,85,0.00,,---,0.00,VWS V14.01,2013-09-30 08:16:00,
2013-09-30 01:21:00,50.8,47.1,29.44,SSW,205,3.0,15.0,87,0.00,,---,0.00,VWS V14.01,2013-09-30 08:21:00,
2013-09-30 01:26:00,51.0,47.0,29.44,SSW,208,0.0,15.0,86,0.00,,---,0.00,VWS V14.01,2013-09-30 08:26:00,
2013-09-30 01:31:00,51.0,46.7,29.44,SSE,162,1.0,10.0,85,0.00,,---,0.00,VWS V14.01,2013-09-30 08:31:00,
2013-09-30 01:36:00,51.0,46.7,29.45,ENE,60,2.0,10.0,85,0.00,,---,0.00,VWS V14.01,2013-09-30 08:36:00,
2013-09-30 01:41:00,50.9,46.2,29.45,South,175,4.0,10.0,84,0.00,,---,0.00,VWS V14.01,2013-09-30 08:41:00,
2013-09-30 01:46:00,50.8,46.2,29.46,SE,132,1.0,10.0,84,0.00,,---,0.00,VWS V14.01,2013-09-30 08:46:00,
2013-09-30 01:51:00,50.6,46.0,29.47,SSE,148,3.0,10.0,84,0.00,,---,0.00,VWS V14.01,2013-09-30 08:51:00,
2013-09-30 01:56:00,50.6,46.0,29.48,SSW,209,2.0,11.0,84,0.00,,---,0.00,VWS V14.01,2013-09-30 08:56:00,
2013-09-30 02:01:00,50.5,46.2,29.48,SW,227,0.0,3.0,85,0.00,,---,0.00,VWS V14.01,2013-09-30 09:01:00,
2013-09-30 02:06:00,50.4,46.1,29.48,SSE,157,0.0,12.0,85,0.00,,---,0.00,VWS V14.01,2013-09-30 09:06:00,
2013-09-30 02:11:00,50.2,46.2,29.48,SSE,167,1.0,16.0,86,0.00,,---,0.00,VWS V14.01,2013-09-30 09:11:00,
2013-09-30 02:16:00,50.0,46.6,29.48,SSE,167,0.0,16.0,88,0.00,,---,0.00,VWS V14.01,2013-09-30 09:16:00,
2013-09-30 02:21:00,49.8,46.7,29.48,South,190,5.0,16.0,89,0.00,,---,0.00,VWS V14.01,2013-09-30 09:21:00,
2013-09-30 02:26:00,49.8,46.7,29.48,South,183,3.0,16.0,89,0.00,,---,0.00,VWS V14.01,2013-09-30 09:26:00,
2013-09-30 02:31:00,49.7,46.6,29.47,SSE,157,3.0,5.0,89,0.00,,---,0.00,VWS V14.01,2013-09-30 09:31:00,
2013-09-30 02:36:00,49.6,46.5,29.47,SSW,201,3.0,11.0,89,0.00,,---,0.00,VWS V14.01,2013-09-30 09:36:00,
2013-09-30 02:42:00,49.6,46.5,29.46,SSE,150,6.0,11.0,89,0.00,,---,0.00,VWS V14.01,2013-09-30 09:42:00,
2013-09-30 02:47:00,49.5,46.1,29.46,South,182,4.0,11.0,88,0.00,,---,0.00,VWS V14.01,2013-09-30 09:47:00,
2013-09-30 02:52:00,49.6,46.2,29.46,SE,138,7.0,11.0,88,0.00,,---,0.00,VWS V14.01,2013-09-30 09:52:00,
2013-09-30 02:57:00,49.6,46.2,29.46,South,182,3.0,12.0,88,0.00,,---,0.00,VWS V14.01,2013-09-30 09:57:00,
2013-09-30 03:02:00,49.7,46.6,29.46,South,178,11.0,11.0,89,0.00,,---,0.00,VWS V14.01,2013-09-30 10:02:00,
2013-09-30 03:07:00,49.7,46.6,29.46,South,191,2.0,16.0,89,0.00,,---,0.00,VWS V14.01,2013-09-30 10:07:00,
2013-09-30 03:12:00,49.8,46.7,29.46,SSE,161,0.0,16.0,89,0.00,,---,0.00,VWS V14.01,2013-09-30 10:12:00,
2013-09-30 03:17:00,49.9,46.8,29.47,SSE,163,3.0,16.0,89,0.00,,---,0.00,VWS V14.01,2013-09-30 10:17:00,
2013-09-30 03:22:00,50.0,46.9,29.47,SSE,167,5.0,16.0,89,0.00,,---,0.00,VWS V14.01,2013-09-30 10:22:00,
2013-09-30 03:27:00,50.1,47.0,29.48,South,179,5.0,16.0,89,0.00,,---,0.00,VWS V14.01,2013-09-30 10:27:00,
2013-09-30 03:32:00,50.1,47.3,29.48,SSE,168,6.0,9.0,90,0.00,,---,0.00,VWS V14.01,2013-09-30 10:32:00,
2013-09-30 03:37:00,50.3,47.5,29.48,South,186,2.0,9.0,90,0.00,,---,0.00,VWS V14.01,2013-09-30 10:37:00,
2013-09-30 03:42:00,50.3,47.5,29.48,SSE,164,2.0,11.0,90,0.00,,---,0.00,VWS V14.01,2013-09-30 10:42:00,
2013-09-30 03:47:00,50.3,47.5,29.48,SE,145,0.0,11.0,90,0.00,,---,0.00,VWS V14.01,2013-09-30 10:47:00,
2013-09-30 03:52:00,50.2,47.7,29.49,South,180,0.0,11.0,91,0.00,,---,0.00,VWS V14.01,2013-09-30 10:52:00,
2013-09-30 03:57:00,50.2,47.7,29.49,South,176,9.0,11.0,91,0.00,,---,0.00,VWS V14.01,2013-09-30 10:57:00,
2013-09-30 04:02:00,50.3,47.8,29.50,South,171,5.0,11.0,91,0.00,,---,0.00,VWS V14.01,2013-09-30 11:02:00,
2013-09-30 04:07:00,50.4,47.9,29.49,SE,146,2.0,11.0,91,0.00,,---,0.00,VWS V14.01,2013-09-30 11:07:00,
2013-09-30 04:12:00,50.6,47.8,29.49,SSW,192,1.0,16.0,90,0.00,,---,0.00,VWS V14.01,2013-09-30 11:12:00,
2013-09-30 04:17:00,50.9,48.1,29.49,SSE,153,2.0,16.0,90,0.00,,---,0.00,VWS V14.01,2013-09-30 11:17:00,
2013-09-30 04:22:00,51.0,48.2,29.49,South,179,1.0,16.0,90,0.00,,---,0.00,VWS V14.01,2013-09-30 11:22:00,
2013-09-30 04:27:00,50.8,48.3,29.49,SSE,151,0.0,16.0,91,0.01,,---,0.01,VWS V14.01,2013-09-30 11:27:00,
2013-09-30 04:32:00,50.7,48.2,29.49,East,83,7.0,10.0,91,0.01,,---,0.01,VWS V14.01,2013-09-30 11:32:00,
2013-09-30 04:37:00,50.7,48.2,29.49,SSE,163,5.0,17.0,91,0.01,,---,0.01,VWS V14.01,2013-09-30 11:37:00,
2013-09-30 04:42:00,50.6,48.4,29.50,SSW,199,0.0,17.0,92,0.01,,---,0.01,VWS V14.01,2013-09-30 11:42:00,
2013-09-30 04:47:00,50.6,48.4,29.49,SSE,159,3.0,17.0,92,0.01,,---,0.01,VWS V14.01,2013-09-30 11:47:00,
2013-09-30 04:52:00,50.6,48.4,29.49,SSE,168,0.0,17.0,92,0.01,,---,0.01,VWS V14.01,2013-09-30 11:52:00,
2013-09-30 04:57:00,50.6,48.4,29.49,SE,129,0.0,17.0,92,0.01,,---,0.01,VWS V14.01,2013-09-30 11:57:00,
2013-09-30 05:02:00,50.7,48.5,29.50,SW,232,2.0,6.0,92,0.02,,---,0.02,VWS V14.01,2013-09-30 12:02:00,
2013-09-30 05:07:00,50.8,48.6,29.50,SSE,155,1.0,9.0,92,0.02,,---,0.02,VWS V14.01,2013-09-30 12:07:00,
2013-09-30 05:12:00,50.8,48.6,29.50,ESE,118,1.0,9.0,92,0.02,,---,0.02,VWS V14.01,2013-09-30 12:12:00,
2013-09-30 05:18:00,50.8,48.6,29.50,East,94,1.0,9.0,92,0.02,,---,0.02,VWS V14.01,2013-09-30 12:18:00,
2013-09-30 05:23:00,50.9,48.7,29.50,South,180,3.0,11.0,92,0.02,,---,0.02,VWS V14.01,2013-09-30 12:23:00,
2013-09-30 05:28:00,50.9,48.7,29.50,ESE,117,0.0,11.0,92,0.02,,---,0.02,VWS V14.01,2013-09-30 12:28:00,
2013-09-30 05:33:00,50.9,48.7,29.50,South,182,0.0,4.0,92,0.01,,---,0.02,VWS V14.01,2013-09-30 12:33:00,
2013-09-30 05:38:00,50.9,48.7,29.50,SSE,155,1.0,6.0,92,0.01,,---,0.02,VWS V14.01,2013-09-30 12:38:00,
2013-09-30 05:43:00,50.9,48.7,29.50,SE,140,1.0,7.0,92,0.01,,---,0.02,VWS V14.01,2013-09-30 12:43:00,
2013-09-30 05:48:00,50.9,48.7,29.50,South,180,7.0,10.0,92,0.01,,---,0.02,VWS V14.01,2013-09-30 12:48:00,
2013-09-30 05:53:00,51.0,48.8,29.51,SE,128,5.0,12.0,92,0.01,,---,0.02,VWS V14.01,2013-09-30 12:53:00,
2013-09-30 05:58:00,51.2,48.7,29.51,South,180,0.0,12.0,91,0.01,,---,0.02,VWS V14.01,2013-09-30 12:58:00,
2013-09-30 06:03:00,51.2,48.7,29.51,SE,142,1.0,6.0,91,0.00,,---,0.02,VWS V14.01,2013-09-30 13:03:00,
2013-09-30 06:08:00,51.2,48.4,29.51,SE,138,10.0,10.0,90,0.00,,---,0.02,VWS V14.01,2013-09-30 13:08:00,
2013-09-30 06:13:00,51.3,48.5,29.51,South,187,1.0,10.0,90,0.00,,---,0.02,VWS V14.01,2013-09-30 13:13:00,
2013-09-30 06:18:00,51.2,48.4,29.52,South,170,2.0,10.0,90,0.00,,---,0.02,VWS V14.01,2013-09-30 13:18:00,
2013-09-30 06:23:00,51.3,48.2,29.52,SSW,192,5.0,10.0,89,0.00,,---,0.02,VWS V14.01,2013-09-30 13:23:00,
2013-09-30 06:28:00,51.3,48.2,29.52,SSE,165,6.0,10.0,89,0.00,,---,0.02,VWS V14.01,2013-09-30 13:28:00,
2013-09-30 06:33:00,51.4,48.3,29.52,ESE,111,2.0,10.0,89,0.00,,---,0.02,VWS V14.01,2013-09-30 13:33:00,
2013-09-30 06:38:00,51.4,48.0,29.53,SE,146,5.0,10.0,88,0.00,,---,0.02,VWS V14.01,2013-09-30 13:38:00,
2013-09-30 06:43:00,51.5,48.4,29.53,South,172,3.0,10.0,89,0.00,,---,0.02,VWS V14.01,2013-09-30 13:43:00,
2013-09-30 06:48:00,51.5,48.1,29.54,South,169,0.0,10.0,88,0.00,,---,0.02,VWS V14.01,2013-09-30 13:48:00,
2013-09-30 06:53:00,51.5,48.1,29.54,ENE,76,0.0,10.0,88,0.00,,---,0.02,VWS V14.01,2013-09-30 13:53:00,
2013-09-30 06:58:00,51.6,48.2,29.54,SSW,200,0.0,10.0,88,0.00,,---,0.02,VWS V14.01,2013-09-30 13:58:00,
2013-09-30 07:03:00,51.6,48.2,29.53,SSE,167,1.0,12.0,88,0.00,,---,0.02,VWS V14.01,2013-09-30 14:03:00,
2013-09-30 07:08:00,51.6,48.2,29.54,SE,129,3.0,12.0,88,0.00,,---,0.02,VWS V14.01,2013-09-30 14:08:00,
2013-09-30 07:13:00,51.5,48.1,29.54,SE,145,1.0,12.0,88,0.00,,---,0.02,VWS V14.01,2013-09-30 14:13:00,
2013-09-30 07:18:00,51.4,48.0,29.54,SSE,148,4.0,12.0,88,0.00,,---,0.02,VWS V14.01,2013-09-30 14:18:00,
2013-09-30 07:23:00,51.3,48.2,29.55,SSE,164,2.0,12.0,89,0.00,,---,0.02,VWS V14.01,2013-09-30 14:23:00,
2013-09-30 07:28:00,51.2,48.4,29.56,NW,307,0.0,12.0,90,0.01,,---,0.03,VWS V14.01,2013-09-30 14:28:00,
2013-09-30 07:33:00,51.0,48.2,29.55,SSE,159,1.0,6.0,90,0.01,,---,0.03,VWS V14.01,2013-09-30 14:33:00,
2013-09-30 07:38:00,50.8,48.3,29.56,ESE,103,1.0,7.0,91,0.01,,---,0.03,VWS V14.01,2013-09-30 14:38:00,
2013-09-30 07:43:00,50.7,48.2,29.56,SSE,149,1.0,7.0,91,0.02,,---,0.04,VWS V14.01,2013-09-30 14:43:00,
2013-09-30 07:48:00,50.7,48.2,29.55,SSW,203,0.0,10.0,91,0.02,,---,0.04,VWS V14.01,2013-09-30 14:48:00,
2013-09-30 07:53:00,50.7,48.5,29.56,ESE,118,0.0,13.0,92,0.02,,---,0.04,VWS V14.01,2013-09-30 14:53:00,
2013-09-30 07:59:00,50.8,48.6,29.56,SE,142,1.0,13.0,92,0.02,,---,0.04,VWS V14.01,2013-09-30 14:59:00,
2013-09-30 08:04:00,51.0,49.0,29.56,SSE,161,0.0,5.0,93,0.02,,---,0.04,VWS V14.01,2013-09-30 15:04:00,
2013-09-30 08:09:00,51.0,49.0,29.57,SSE,157,2.0,6.0,93,0.02,,---,0.04,VWS V14.01,2013-09-30 15:09:00,
2013-09-30 08:14:00,51.1,49.2,29.57,SE,142,1.0,6.0,93,0.02,,---,0.04,VWS V14.01,2013-09-30 15:14:00,
2013-09-30 08:19:00,51.2,49.2,29.58,SSE,162,3.0,10.0,93,0.02,,---,0.04,VWS V14.01,2013-09-30 15:19:00,
2013-09-30 08:24:00,51.3,49.3,29.58,SE,125,0.0,10.0,93,0.02,,---,0.04,VWS V14.01,2013-09-30 15:24:00,
2013-09-30 08:29:00,51.3,49.3,29.59,South,173,4.0,10.0,93,0.02,,---,0.04,VWS V14.01,2013-09-30 15:29:00,
2013-09-30 08:34:00,51.4,49.5,29.59,SSE,152,1.0,5.0,93,0.01,,---,0.04,VWS V14.01,2013-09-30 15:34:00,
2013-09-30 08:39:00,51.4,49.5,29.59,ESE,102,2.0,8.0,93,0.01,,---,0.04,VWS V14.01,2013-09-30 15:39:00,
2013-09-30 08:44:00,51.5,49.5,29.59,ESE,121,0.0,10.0,93,0.01,,---,0.04,VWS V14.01,2013-09-30 15:44:00,
2013-09-30 08:49:00,51.5,49.3,29.60,SE,145,0.0,10.0,92,0.01,,---,0.04,VWS V14.01,2013-09-30 15:49:00,
2013-09-30 08:54:00,51.7,49.5,29.60,SW,229,0.0,10.0,92,0.01,,---,0.04,VWS V14.01,2013-09-30 15:54:00,
2013-09-30 08:59:00,51.8,49.8,29.60,SSW,206,1.0,10.0,93,0.01,,---,0.04,VWS V14.01,2013-09-30 15:59:00,
2013-09-30 09:04:00,52.0,49.8,29.60,SSW,205,0.0,10.0,92,0.00,,---,0.04,VWS V14.01,2013-09-30 16:04:00,
2013-09-30 09:09:00,52.2,50.0,29.61,WSW,242,0.0,10.0,92,0.00,,---,0.04,VWS V14.01,2013-09-30 16:09:00,
2013-09-30 09:14:00,52.4,49.8,29.60,SSE,155,0.0,10.0,91,0.00,,---,0.04,VWS V14.01,2013-09-30 16:14:00,
2013-09-30 09:19:00,52.4,49.8,29.61,South,185,4.0,10.0,91,0.00,,---,0.04,VWS V14.01,2013-09-30 16:19:00,
2013-09-30 09:24:00,52.4,49.8,29.62,SW,233,1.0,10.0,91,0.00,,---,0.04,VWS V14.01,2013-09-30 16:24:00,
2013-09-30 09:29:00,52.5,50.0,29.62,SSW,210,0.0,10.0,91,0.00,,---,0.04,VWS V14.01,2013-09-30 16:29:00,
2013-09-30 09:34:00,52.5,50.0,29.63,West,273,0.0,3.0,91,0.00,,---,0.04,VWS V14.01,2013-09-30 16:34:00,
2013-09-30 09:39:00,53.0,50.5,29.63,South,179,0.0,7.0,91,0.00,,---,0.04,VWS V14.01,2013-09-30 16:39:00,
2013-09-30 09:44:00,53.8,50.9,29.63,West,279,0.0,7.0,90,0.00,,---,0.04,VWS V14.01,2013-09-30 16:44:00,
2013-09-30 09:49:00,54.1,50.6,29.64,South,191,0.0,7.0,88,0.00,,---,0.04,VWS V14.01,2013-09-30 16:49:00,
2013-09-30 09:54:00,54.1,50.3,29.64,SE,143,0.0,15.0,87,0.00,,---,0.04,VWS V14.01,2013-09-30 16:54:00,
2013-09-30 09:59:00,54.1,50.6,29.64,SSE,153,2.0,15.0,88,0.00,,---,0.04,VWS V14.01,2013-09-30 16:59:00,
2013-09-30 10:04:00,54.4,50.9,29.64,ENE,70,0.0,10.0,88,0.00,,---,0.04,VWS V14.01,2013-09-30 17:04:00,
2013-09-30 10:09:00,54.9,51.1,29.65,South,187,0.0,10.0,87,0.00,,---,0.04,VWS V14.01,2013-09-30 17:09:00,
2013-09-30 10:14:00,55.5,51.7,29.65,WSW,250,3.0,11.0,87,0.00,,---,0.04,VWS V14.01,2013-09-30 17:14:00,
2013-09-30 10:20:00,56.1,52.0,29.65,South,183,0.0,13.0,86,0.00,,---,0.04,VWS V14.01,2013-09-30 17:20:00,
2013-09-30 10:25:00,56.4,51.6,29.65,SW,217,4.0,13.0,84,0.00,,---,0.04,VWS V14.01,2013-09-30 17:25:00,
2013-09-30 10:30:00,56.5,51.7,29.65,SE,136,5.0,13.0,84,0.00,,---,0.04,VWS V14.01,2013-09-30 17:30:00,
2013-09-30 10:35:00,56.9,52.1,29.65,WSW,244,0.0,10.0,84,0.00,,---,0.04,VWS V14.01,2013-09-30 17:35:00,
2013-09-30 10:40:00,56.9,51.8,29.66,WSW,237,4.0,10.0,83,0.00,,---,0.04,VWS V14.01,2013-09-30 17:40:00,
2013-09-30 10:45:00,56.7,51.9,29.66,SW,223,1.0,11.0,84,0.00,,---,0.04,VWS V14.01,2013-09-30 17:45:00,
2013-09-30 10:50:00,57.3,52.2,29.67,WSW,252,5.0,12.0,83,0.00,,---,0.04,VWS V14.01,2013-09-30 17:50:00,
2013-09-30 10:55:00,57.3,51.9,29.67,SSW,208,0.0,21.0,82,0.00,,---,0.04,VWS V14.01,2013-09-30 17:55:00,
2013-09-30 11:00:00,57.2,51.8,29.67,South,186,0.0,21.0,82,0.00,,---,0.04,VWS V14.01,2013-09-30 18:00:00,
2013-09-30 11:05:00,56.9,51.5,29.67,SSW,208,5.0,13.0,82,0.00,,---,0.04,VWS V14.01,2013-09-30 18:05:00,
2013-09-30 11:10:00,56.7,51.3,29.68,SSE,157,2.0,13.0,82,0.00,,---,0.04,VWS V14.01,2013-09-30 18:10:00,
2013-09-30 11:15:00,56.5,51.1,29.68,SSW,210,3.0,13.0,82,0.00,,---,0.04,VWS V14.01,2013-09-30 18:15:00,
2013-09-30 11:20:00,56.2,51.1,29.68,SE,134,0.0,13.0,83,0.00,,---,0.04,VWS V14.01,2013-09-30 18:20:00,
2013-09-30 11:25:00,56.2,51.4,29.68,ESE,123,6.0,13.0,84,0.00,,---,0.04,VWS V14.01,2013-09-30 18:25:00,
2013-09-30 11:30:00,56.0,51.9,29.68,NNW,348,3.0,13.0,86,0.00,,---,0.04,VWS V14.01,2013-09-30 18:30:00,
2013-09-30 11:35:00,55.7,51.6,29.68,SE,136,0.0,13.0,86,0.01,,---,0.05,VWS V14.01,2013-09-30 18:35:00,
2013-09-30 11:40:00,55.3,51.2,29.68,SW,236,4.0,13.0,86,0.01,,---,0.05,VWS V14.01,2013-09-30 18:40:00,
2013-09-30 11:45:00,55.1,51.0,29.68,South,173,2.0,13.0,86,0.01,,---,0.05,VWS V14.01,2013-09-30 18:45:00,
2013-09-30 11:50:00,55.0,50.9,29.69,SSW,198,1.0,13.0,86,0.01,,---,0.05,VWS V14.01,2013-09-30 18:50:00,
2013-09-30 11:55:00,55.0,51.5,29.69,South,171,3.0,13.0,88,0.01,,---,0.05,VWS V14.01,2013-09-30 18:55:00,
2013-09-30 12:00:00,54.7,50.3,29.70,SSE,151,0.0,13.0,85,0.01,,---,0.05,VWS V14.01,2013-09-30 19:00:00,
2013-09-30 12:05:00,53.9,49.2,29.70,SSE,164,5.0,5.0,84,0.01,,---,0.05,VWS V14.01,2013-09-30 19:05:00,
2013-09-30 12:10:00,53.0,48.3,29.70,South,191,4.0,11.0,84,0.01,,---,0.05,VWS V14.01,2013-09-30 19:10:00,
2013-09-30 12:15:00,51.9,47.8,29.70,SSE,155,0.0,11.0,86,0.02,,---,0.06,VWS V14.01,2013-09-30 19:15:00,
2013-09-30 12:20:00,51.4,48.0,29.70,SE,144,2.0,11.0,88,0.03,,---,0.07,VWS V14.01,2013-09-30 19:20:00,
2013-09-30 12:25:00,51.1,48.3,29.69,SSE,159,0.0,11.0,90,0.03,,---,0.07,VWS V14.01,2013-09-30 19:25:00,
2013-09-30 12:30:00,51.0,48.2,29.70,SE,135,5.0,7.0,90,0.03,,---,0.07,VWS V14.01,2013-09-30 19:30:00,
2013-09-30 12:36:00,51.4,48.6,29.70,South,178,1.0,11.0,90,0.03,,---,0.07,VWS V14.01,2013-09-30 19:36:00,
2013-09-30 12:41:00,51.8,48.7,29.72,SSE,151,0.0,12.0,89,0.03,,---,0.07,VWS V14.01,2013-09-30 19:41:00,
2013-09-30 12:46:00,52.1,48.7,29.72,South,176,2.0,12.0,88,0.03,,---,0.07,VWS V14.01,2013-09-30 19:46:00,
2013-09-30 12:51:00,52.5,49.4,29.72,SSE,151,2.0,12.0,89,0.03,,---,0.07,VWS V14.01,2013-09-30 19:51:00,
2013-09-30 12:56:00,53.0,49.2,29.72,South,172,2.0,12.0,87,0.03,,---,0.07,VWS V14.01,2013-09-30 19:56:00,
2013-09-30 13:01:00,53.3,49.8,29.73,ENE,63,5.0,7.0,88,0.02,,---,0.07,VWS V14.01,2013-09-30 20:01:00,
2013-09-30 13:06:00,53.6,49.5,29.73,SSE,159,0.0,9.0,86,0.02,,---,0.07,VWS V14.01,2013-09-30 20:06:00,
2013-09-30 13:11:00,53.8,49.7,29.73,SSE,149,1.0,10.0,86,0.02,,---,0.07,VWS V14.01,2013-09-30 20:11:00,
2013-09-30 13:16:00,53.6,49.5,29.73,ENE,57,0.0,10.0,86,0.02,,---,0.07,VWS V14.01,2013-09-30 20:16:00,
2013-09-30 13:21:00,53.6,49.5,29.73,SSE,156,2.0,10.0,86,0.02,,---,0.07,VWS V14.01,2013-09-30 20:21:00,
2013-09-30 13:26:00,54.2,50.4,29.73,SSW,213,0.0,10.0,87,0.02,,---,0.07,VWS V14.01,2013-09-30 20:26:00,
2013-09-30 13:31:00,55.1,51.3,29.73,SE,144,3.0,4.0,87,0.00,,---,0.07,VWS V14.01,2013-09-30 20:31:00,
2013-09-30 13:36:00,55.2,50.1,29.73,WSW,245,6.0,13.0,83,0.00,,---,0.07,VWS V14.01,2013-09-30 20:36:00,
2013-09-30 13:41:00,55.5,51.4,29.74,SSW,192,2.0,13.0,86,0.00,,---,0.07,VWS V14.01,2013-09-30 20:41:00,
2013-09-30 13:46:00,56.4,51.3,29.74,South,170,3.0,13.0,83,0.00,,---,0.07,VWS V14.01,2013-09-30 20:46:00,
2013-09-30 13:51:00,56.4,50.7,29.74,SSW,213,2.0,13.0,81,0.00,,---,0.07,VWS V14.01,2013-09-30 20:51:00,
2013-09-30 13:56:00,56.8,51.4,29.74,SSW,207,9.0,13.0,82,0.00,,---,0.07,VWS V14.01,2013-09-30 20:56:00,
2013-09-30 14:01:00,57.5,51.7,29.74,SSW,198,2.0,5.0,81,0.00,,---,0.07,VWS V14.01,2013-09-30 21:01:00,
2013-09-30 14:06:00,57.9,51.4,29.74,WSW,237,0.0,6.0,79,0.00,,---,0.07,VWS V14.01,2013-09-30 21:06:00,
2013-09-30 14:11:00,58.2,51.4,29.75,SSW,201,3.0,12.0,78,0.00,,---,0.07,VWS V14.01,2013-09-30 21:11:00,
2013-09-30 14:16:00,58.1,51.3,29.74,SSW,194,0.0,12.0,78,0.00,,---,0.07,VWS V14.01,2013-09-30 21:16:00,
2013-09-30 14:21:00,58.2,51.4,29.75,SSE,160,3.0,12.0,78,0.00,,---,0.07,VWS V14.01,2013-09-30 21:21:00,
2013-09-30 14:26:00,58.4,51.2,29.75,SSW,209,0.0,12.0,77,0.00,,---,0.07,VWS V14.01,2013-09-30 21:26:00,
2013-09-30 14:31:00,58.2,51.0,29.76,SW,234,5.0,5.0,77,0.00,,---,0.07,VWS V14.01,2013-09-30 21:31:00,
2013-09-30 14:36:00,57.8,51.3,29.76,SSE,157,0.0,7.0,79,0.00,,---,0.07,VWS V14.01,2013-09-30 21:36:00,
2013-09-30 14:41:00,57.1,50.7,29.76,SSW,209,0.0,7.0,79,0.00,,---,0.07,VWS V14.01,2013-09-30 21:41:00,
2013-09-30 14:46:00,56.7,50.6,29.76,SW,217,0.0,7.0,80,0.00,,---,0.07,VWS V14.01,2013-09-30 21:46:00,
2013-09-30 14:51:00,56.6,50.8,29.76,SE,145,0.0,11.0,81,0.00,,---,0.07,VWS V14.01,2013-09-30 21:51:00,
2013-09-30 14:56:00,56.5,50.8,29.77,WSW,239,0.0,13.0,81,0.00,,---,0.07,VWS V14.01,2013-09-30 21:56:00,
2013-09-30 15:02:00,56.3,50.5,29.76,SSE,156,0.0,3.0,81,0.00,,---,0.07,VWS V14.01,2013-09-30 22:02:00,
2013-09-30 15:07:00,56.1,50.0,29.77,SSE,163,1.0,11.0,80,0.00,,---,0.07,VWS V14.01,2013-09-30 22:07:00,
2013-09-30 15:12:00,56.5,50.8,29.77,West,267,1.0,12.0,81,0.00,,---,0.07,VWS V14.01,2013-09-30 22:12:00,
2013-09-30 15:17:00,56.6,50.2,29.77,South,176,6.0,12.0,79,0.00,,---,0.07,VWS V14.01,2013-09-30 22:17:00,
2013-09-30 15:22:00,56.5,50.1,29.76,SSW,196,0.0,12.0,79,0.00,,---,0.07,VWS V14.01,2013-09-30 22:22:00,
2013-09-30 15:27:00,56.5,50.1,29.76,SE,139,5.0,12.0,79,0.00,,---,0.07,VWS V14.01,2013-09-30 22:27:00,
2013-09-30 15:32:00,57.1,50.0,29.76,ESE,121,4.0,11.0,77,0.00,,---,0.07,VWS V14.01,2013-09-30 22:32:00,
2013-09-30 15:37:00,57.6,50.1,29.76,South,186,2.0,12.0,76,0.00,,---,0.07,VWS V14.01,2013-09-30 22:37:00,
2013-09-30 15:42:00,58.0,50.5,29.77,SSW,194,1.0,12.0,76,0.00,,---,0.07,VWS V14.01,2013-09-30 22:42:00,
2013-09-30 15:47:00,57.8,50.3,29.77,South,186,4.0,14.0,76,0.00,,---,0.07,VWS V14.01,2013-09-30 22:47:00,
2013-09-30 15:52:00,57.7,50.2,29.77,South,173,0.0,14.0,76,0.00,,---,0.07,VWS V14.01,2013-09-30 22:52:00,
2013-09-30 15:57:00,58.0,50.5,29.77,SSW,192,2.0,14.0,76,0.00,,---,0.07,VWS V14.01,2013-09-30 22:57:00,
2013-09-30 16:02:00,58.2,50.3,29.77,SE,146,4.0,7.0,75,0.00,,---,0.07,VWS V14.01,2013-09-30 23:02:00,
2013-09-30 16:07:00,57.9,50.4,29.78,ESE,121,3.0,13.0,76,0.00,,---,0.07,VWS V14.01,2013-09-30 23:07:00,
2013-09-30 16:12:00,57.7,50.2,29.78,WSW,252,4.0,13.0,76,0.00,,---,0.07,VWS V14.01,2013-09-30 23:12:00,
2013-09-30 16:17:00,57.2,50.1,29.78,SSW,193,3.0,13.0,77,0.00,,---,0.07,VWS V14.01,2013-09-30 23:17:00,
2013-09-30 16:22:00,56.8,50.4,29.79,SSE,151,0.0,20.0,79,0.00,,---,0.07,VWS V14.01,2013-09-30 23:22:00,
2013-09-30 16:27:00,56.8,50.7,29.78,South,169,0.0,20.0,80,0.00,,---,0.07,VWS V14.01,2013-09-30 23:27:00,
2013-09-30 16:32:00,56.6,50.5,29.78,SW,229,1.0,6.0,80,0.00,,---,0.07,VWS V14.01,2013-09-30 23:32:00,
2013-09-30 16:38:00,56.2,49.4,29.78,SSW,192,4.0,11.0,78,0.00,,---,0.07,VWS V14.01,2013-09-30 23:38:00,
2013-09-30 16:43:00,55.9,49.5,29.78,SSW,210,2.0,13.0,79,0.00,,---,0.07,VWS V14.01,2013-09-30 23:43:00,
2013-09-30 16:48:00,56.6,49.8,29.78,South,176,1.0,13.0,78,0.00,,---,0.07,VWS V14.01,2013-09-30 23:48:00,
2013-09-30 16:53:00,57.4,49.9,29.78,South,173,1.0,13.0,76,0.00,,---,0.07,VWS V14.01,2013-09-30 23:53:00,
2013-09-30 16:58:00,57.5,50.0,29.79,SE,128,0.0,13.0,76,0.00,,---,0.07,VWS V14.01,2013-09-30 23:58:00,
2013-09-30 17:03:00,57.4,49.5,29.79,SW,215,3.0,10.0,75,0.00,,---,0.07,VWS V14.01,2013-10-01 00:03:00,
2013-09-30 17:08:00,57.1,49.3,29.79,SE,141,0.0,10.0,75,0.00,,---,0.07,VWS V14.01,2013-10-01 00:08:00,
2013-09-30 17:13:00,56.8,49.3,29.79,SW,214,2.0,10.0,76,0.00,,---,0.07,VWS V14.01,2013-10-01 00:13:00,
2013-09-30 17:18:00,56.2,49.1,29.80,NE,35,3.0,10.0,77,0.00,,---,0.07,VWS V14.01,2013-10-01 00:18:00,
2013-09-30 17:23:00,55.8,48.7,29.80,SSE,152,1.0,10.0,77,0.00,,---,0.07,VWS V14.01,2013-10-01 00:23:00,
2013-09-30 17:28:00,55.3,48.2,29.80,SSE,160,4.0,11.0,77,0.00,,---,0.07,VWS V14.01,2013-10-01 00:28:00,
2013-09-30 17:33:00,55.1,48.4,29.80,SSW,195,2.0,12.0,78,0.00,,---,0.07,VWS V14.01,2013-10-01 00:33:00,
2013-09-30 17:38:00,55.1,48.7,29.81,South,189,4.0,13.0,79,0.00,,---,0.07,VWS V14.01,2013-10-01 00:38:00,
2013-09-30 17:43:00,55.0,48.6,29.81,South,169,0.0,14.0,79,0.00,,---,0.07,VWS V14.01,2013-10-01 00:43:00,
2013-09-30 17:48:00,55.1,49.0,29.81,SE,144,0.0,14.0,80,0.00,,---,0.07,VWS V14.01,2013-10-01 00:48:00,
2013-09-30 17:53:00,55.1,49.0,29.81,ESE,105,3.0,14.0,80,0.00,,---,0.07,VWS V14.01,2013-10-01 00:53:00,
2013-09-30 17:59:00,54.8,48.8,29.81,East,98,1.0,18.0,80,0.00,,---,0.07,VWS V14.01,2013-10-01 00:59:00,
2013-09-30 18:04:00,54.5,48.8,29.82,South,186,4.0,19.0,81,0.00,,---,0.07,VWS V14.01,2013-10-01 01:04:00,
2013-09-30 18:09:00,54.3,48.6,29.82,SSE,157,0.0,19.0,81,0.00,,---,0.07,VWS V14.01,2013-10-01 01:09:00,
2013-09-30 18:14:00,54.3,48.3,29.82,South,187,0.0,19.0,80,0.00,,---,0.07,VWS V14.01,2013-10-01 01:14:00,
2013-09-30 18:19:00,54.2,47.8,29.82,SW,234,1.0,19.0,79,0.00,,---,0.07,VWS V14.01,2013-10-01 01:19:00,
2013-09-30 18:24:00,54.0,47.3,29.82,WSW,244,0.0,19.0,78,0.00,,---,0.07,VWS V14.01,2013-10-01 01:24:00,
2013-09-30 18:29:00,53.7,47.0,29.82,SE,142,0.0,19.0,78,0.00,,---,0.07,VWS V14.01,2013-10-01 01:29:00,
2013-09-30 18:34:00,53.5,47.2,29.82,South,188,1.0,7.0,79,0.00,,---,0.07,VWS V14.01,2013-10-01 01:34:00,
2013-09-30 18:39:00,53.2,47.2,29.82,South,173,4.0,7.0,80,0.00,,---,0.07,VWS V14.01,2013-10-01 01:39:00,
2013-09-30 18:44:00,52.9,47.2,29.83,SSE,148,1.0,10.0,81,0.00,,---,0.07,VWS V14.01,2013-10-01 01:44:00,
2013-09-30 18:49:00,52.8,47.8,29.83,South,184,0.0,10.0,83,0.00,,---,0.07,VWS V14.01,2013-10-01 01:49:00,
2013-09-30 18:54:00,52.6,47.6,29.83,South,175,0.0,10.0,83,0.00,,---,0.07,VWS V14.01,2013-10-01 01:54:00,
2013-09-30 18:59:00,52.6,47.9,29.83,SSE,149,1.0,10.0,84,0.00,,---,0.07,VWS V14.01,2013-10-01 01:59:00,
2013-09-30 19:04:00,52.7,48.3,29.83,SSE,153,2.0,7.0,85,0.00,,---,0.07,VWS V14.01,2013-10-01 02:04:00,
2013-09-30 19:09:00,52.6,48.8,29.83,SSE,163,1.0,7.0,87,0.00,,---,0.07,VWS V14.01,2013-10-01 02:09:00,
2013-09-30 19:14:00,52.4,48.7,29.83,SE,140,0.0,8.0,87,0.00,,---,0.07,VWS V14.01,2013-10-01 02:14:00,
2013-09-30 19:19:00,52.3,48.5,29.83,ESE,111,3.0,14.0,87,0.01,,---,0.08,VWS V14.01,2013-10-01 02:19:00,
2013-09-30 19:24:00,52.1,48.7,29.84,East,96,3.0,14.0,88,0.04,,---,0.11,VWS V14.01,2013-10-01 02:24:00,
2013-09-30 19:29:00,51.6,48.5,29.84,SSE,150,3.0,14.0,89,0.04,,---,0.11,VWS V14.01,2013-10-01 02:29:00,
2013-09-30 19:35:00,51.4,48.6,29.84,South,179,0.0,7.0,90,0.04,,---,0.11,VWS V14.01,2013-10-01 02:35:00,
2013-09-30 19:40:00,51.2,48.4,29.84,SSE,155,0.0,7.0,90,0.04,,---,0.11,VWS V14.01,2013-10-01 02:40:00,
2013-09-30 19:45:00,51.0,48.2,29.84,SSE,165,12.0,12.0,90,0.04,,---,0.11,VWS V14.01,2013-10-01 02:45:00,
2013-09-30 19:50:00,50.8,47.7,29.84,WSW,244,0.0,12.0,89,0.04,,---,0.11,VWS V14.01,2013-10-01 02:50:00,
2013-09-30 19:55:00,50.7,47.6,29.85,South,177,0.0,12.0,89,0.04,,---,0.11,VWS V14.01,2013-10-01 02:55:00,
2013-09-30 20:00:00,50.6,47.5,29.85,South,187,1.0,12.0,89,0.04,,---,0.11,VWS V14.01,2013-10-01 03:00:00,
2013-09-30 20:05:00,50.8,47.7,29.85,SE,143,0.0,10.0,89,0.04,,---,0.11,VWS V14.01,2013-10-01 03:05:00,
2013-09-30 20:10:00,50.8,47.4,29.85,SE,142,5.0,11.0,88,0.04,,---,0.11,VWS V14.01,2013-10-01 03:10:00,
2013-09-30 20:15:00,51.2,47.8,29.85,SSE,148,1.0,12.0,88,0.04,,---,0.11,VWS V14.01,2013-10-01 03:15:00,
2013-09-30 20:20:00,51.4,47.7,29.85,South,185,0.0,13.0,87,0.04,,---,0.11,VWS V14.01,2013-10-01 03:20:00,
2013-09-30 20:25:00,51.5,48.1,29.85,South,184,2.0,13.0,88,0.04,,---,0.11,VWS V14.01,2013-10-01 03:25:00,
2013-09-30 20:30:00,51.5,47.8,29.86,SSE,162,1.0,13.0,87,0.04,,---,0.11,VWS V14.01,2013-10-01 03:30:00,
2013-09-30 20:35:00,51.5,47.8,29.86,ESE,122,3.0,5.0,87,0.00,,---,0.11,VWS V14.01,2013-10-01 03:35:00,
2013-09-30 20:40:00,51.4,47.7,29.86,SE,144,0.0,7.0,87,0.00,,---,0.11,VWS V14.01,2013-10-01 03:40:00,
2013-09-30 20:45:00,51.4,47.4,29.86,SE,136,1.0,9.0,86,0.00,,---,0.11,VWS V14.01,2013-10-01 03:45:00,
2013-09-30 20:50:00,51.4,47.4,29.86,SSE,149,7.0,9.0,86,0.00,,---,0.11,VWS V14.01,2013-10-01 03:50:00,
2013-09-30 20:55:00,51.3,47.3,29.87,SSW,205,1.0,9.0,86,0.00,,---,0.11,VWS V14.01,2013-10-01 03:55:00,
2013-09-30 21:01:00,51.2,47.2,29.86,SSE,164,1.0,1.0,86,0.00,,---,0.11,VWS V14.01,2013-10-01 04:01:00,
2013-09-30 21:06:00,51.2,47.2,29.86,South,190,0.0,12.0,86,0.00,,---,0.11,VWS V14.01,2013-10-01 04:06:00,
2013-09-30 21:12:00,51.1,47.4,29.86,ESE,103,0.0,12.0,87,0.00,,---,0.11,VWS V14.01,2013-10-01 04:12:00,
2013-09-30 21:17:00,51.0,47.3,29.86,SE,142,0.0,12.0,87,0.00,,---,0.11,VWS V14.01,2013-10-01 04:17:00,
2013-09-30 21:22:00,51.0,47.3,29.86,SSE,161,3.0,12.0,87,0.00,,---,0.11,VWS V14.01,2013-10-01 04:22:00,
2013-09-30 21:27:00,50.8,47.1,29.87,SE,144,1.0,12.0,87,0.00,,---,0.11,VWS V14.01,2013-10-01 04:27:00,
2013-09-30 21:32:00,50.8,47.1,29.87,SE,129,1.0,4.0,87,0.00,,---,0.11,VWS V14.01,2013-10-01 04:32:00,
2013-09-30 21:37:00,50.7,47.0,29.87,SSE,167,12.0,12.0,87,0.00,,---,0.11,VWS V14.01,2013-10-01 04:37:00,
2013-09-30 21:42:00,50.9,46.9,29.87,South,186,0.0,12.0,86,0.00,,---,0.11,VWS V14.01,2013-10-01 04:42:00,
2013-09-30 21:47:00,50.9,46.9,29.87,SSE,153,0.0,12.0,86,0.00,,---,0.11,VWS V14.01,2013-10-01 04:47:00,
2013-09-30 21:52:00,50.8,46.8,29.87,SE,136,4.0,12.0,86,0.00,,---,0.11,VWS V14.01,2013-10-01 04:52:00,
2013-09-30 21:57:00,50.7,46.7,29.88,SE,129,7.0,12.0,86,0.00,,---,0.11,VWS V14.01,2013-10-01 04:57:00,
2013-09-30 22:03:00,50.6,46.3,29.87,SSE,153,11.0,11.0,85,0.00,,---,0.11,VWS V14.01,2013-10-01 05:03:00,
2013-09-30 22:08:00,50.5,46.2,29.88,SSE,155,4.0,11.0,85,0.00,,---,0.11,VWS V14.01,2013-10-01 05:08:00,
2013-09-30 22:13:00,50.4,46.1,29.88,SE,144,3.0,11.0,85,0.00,,---,0.11,VWS V14.01,2013-10-01 05:13:00,
2013-09-30 22:18:00,50.4,46.1,29.89,SE,142,4.0,12.0,85,0.00,,---,0.11,VWS V14.01,2013-10-01 05:18:00,
2013-09-30 22:23:00,50.4,46.1,29.89,South,173,1.0,12.0,85,0.00,,---,0.11,VWS V14.01,2013-10-01 05:23:00,
2013-09-30 22:28:00,50.2,46.2,29.89,SE,134,0.0,12.0,86,0.00,,---,0.11,VWS V14.01,2013-10-01 05:28:00,
2013-09-30 22:33:00,50.1,46.1,29.89,East,94,10.0,11.0,86,0.00,,---,0.11,VWS V14.01,2013-10-01 05:33:00,
2013-09-30 22:38:00,50.1,46.4,29.89,South,182,5.0,11.0,87,0.00,,---,0.11,VWS V14.01,2013-10-01 05:38:00,
2013-09-30 22:43:00,50.1,46.4,29.90,SE,146,2.0,12.0,87,0.00,,---,0.11,VWS V14.01,2013-10-01 05:43:00,
2013-09-30 22:48:00,50.1,46.4,29.90,SE,136,0.0,12.0,87,0.00,,---,0.11,VWS V14.01,2013-10-01 05:48:00,
2013-09-30 22:53:00,50.0,46.6,29.90,ESE,107,1.0,12.0,88,0.00,,---,0.11,VWS V14.01,2013-10-01 05:53:00,
2013-09-30 22:58:00,50.0,46.6,29.90,West,279,0.0,12.0,88,0.00,,---,0.11,VWS V14.01,2013-10-01 05:58:00,
2013-09-30 23:03:00,50.1,46.7,29.91,SSE,159,0.0,4.0,88,0.00,,---,0.11,VWS V14.01,2013-10-01 06:03:00,
2013-09-30 23:08:00,50.1,46.7,29.90,SSE,157,5.0,12.0,88,0.00,,---,0.11,VWS V14.01,2013-10-01 06:08:00,
2013-09-30 23:14:00,50.1,46.7,29.91,South,191,0.0,12.0,88,0.00,,---,0.11,VWS V14.01,2013-10-01 06:14:00,
2013-09-30 23:19:00,50.1,46.7,29.90,SSE,168,0.0,12.0,88,0.00,,---,0.11,VWS V14.01,2013-10-01 06:19:00,
2013-09-30 23:24:00,49.9,46.5,29.91,ESE,122,3.0,12.0,88,0.00,,---,0.11,VWS V14.01,2013-10-01 06:24:00,
2013-09-30 23:29:00,49.9,46.5,29.91,South,174,2.0,12.0,88,0.00,,---,0.11,VWS V14.01,2013-10-01 06:29:00,
2013-09-30 23:34:00,49.9,46.5,29.91,South,176,0.0,6.0,88,0.00,,---,0.11,VWS V14.01,2013-10-01 06:34:00,
2013-09-30 23:39:00,49.8,46.4,29.91,SSE,158,0.0,9.0,88,0.00,,---,0.11,VWS V14.01,2013-10-01 06:39:00,
2013-09-30 23:44:00,49.8,46.4,29.91,SE,144,0.0,10.0,88,0.00,,---,0.11,VWS V14.01,2013-10-01 06:44:00,
2013-09-30 23:49:00,49.7,46.3,29.90,SE,141,2.0,10.0,88,0.00,,---,0.11,VWS V14.01,2013-10-01 06:49:00,
2013-09-30 23:54:00,49.8,46.4,29.90,SSW,207,1.0,10.0,88,0.00,,---,0.11,VWS V14.01,2013-10-01 06:54:00,
2013-09-30 23:59:00,49.8,46.4,29.90,SSE,149,0.0,10.0,88,0.00,,---,0.11,VWS V14.01,2013-10-01 06:59:00,